[[{"header":{"parameterUnit":"m.s-1","parameterCategory":1,"la1":30.2992,"la2":30.254,"lo1":-89.0895,"lo2":-89.0443,"dy":0.0025,"dx":0.0025,"nx":19,"ny":19,"refTime":"2026-04-22T21:00:00:Z","depth":0,"parameterNumber":2,"parameterNumberName":"U-component_of_WINDS"},"data":[0,0,0,-5.5454,-5.5454,-5.5486,-5.5486,-5.5542,-5.5543,0,0,0,0,0,0,0,0,0,0,0,-5.5455,-5.5455,-5.5453,-5.5455,-5.5486,-5.5486,-5.5542,-5.5543,0,0,0,0,0,0,0,0,0,0,0,-5.5454,-5.5455,-5.5456,-5.5455,-5.5486,-5.5486,-5.5542,-5.5512,0,0,0,0,0,0,0,0,0,0,-5.5479,-5.549,-5.5455,-5.5456,-5.5455,-5.5486,-5.5486,-5.5511,-5.5514,-5.5535,0,-5.5557,0,-5.5551,-5.5548,-5.5548,0,0,0,-5.5446,-5.5487,-5.5487,-5.5456,-5.5455,-5.5486,-5.547,-5.5512,-5.5517,-5.554,-5.5558,-5.5559,-5.5552,-5.5548,-5.5549,-5.5697,-5.5698,0,0,-5.5445,-5.5465,-5.5484,-5.549,-5.5487,-5.5469,-5.5471,-5.5515,-5.5535,-5.5558,-5.556,-5.5553,-5.5549,-5.5549,-5.5696,-5.5697,0,0,0,-5.5445,-5.5465,-5.5462,-5.5488,-5.5493,-5.547,-5.5472,-5.5533,-5.5531,-5.5561,-5.5554,-5.5549,-5.555,-5.5695,-5.5696,-5.5766,0,0,0,-5.5444,-5.5465,-5.5462,-5.5475,-5.5492,-5.5513,-5.549,-5.5528,-5.5532,-5.5554,-5.5549,-5.5551,-5.5693,-5.5695,-5.5762,-5.5795,0,0,0,-5.5449,-5.5465,-5.5474,-5.5476,-5.5491,-5.5512,-5.5512,-5.5528,-5.5528,-5.5548,-5.5551,-5.5693,-5.5695,-5.5758,-5.5788,-5.5837,0,0,0,-5.546,-5.5537,-5.5475,-5.5558,-5.5491,-5.5557,-5.5512,-5.556,-5.5586,-5.555,-5.5694,-5.5696,-5.5757,-5.5784,-5.5833,-5.5879,-5.5901,0,0,-5.5568,-5.555,-5.5598,-5.5543,-5.5626,-5.5551,-5.5643,-5.5647,-5.5631,-5.5676,-5.5679,-5.5763,-5.5788,-5.5836,-5.6026,-5.6044,0,0,0,-5.5638,-5.5672,-5.569,-5.5715,-5.5722,-5.5728,-5.5717,-5.5718,-5.5755,-5.5658,-5.5796,-5.581,-5.5837,-5.5858,-5.5873,-5.5893,-5.5708,-5.5708,-5.5707,-5.5817,-5.5793,-5.5868,-5.5847,-5.5874,-5.5861,-5.5879,-5.5879,-5.5847,-5.588,-5.5891,-5.601,-5.6035,-5.6046,-5.6068,-5.5918,-5.5918,-5.5918,-5.5918,-5.5969,-5.6011,-5.5968,-5.6025,-5.5998,-5.6046,-5.6038,-5.6014,-5.6053,-5.5999,-5.6022,-5.5962,-5.6067,-5.6084,-5.5923,-5.5923,-5.5922,-5.5921,-5.5921,-5.6079,-5.6094,-5.6097,-5.6131,-5.6161,-5.6139,-5.6179,-5.6154,-5.6132,-5.6155,-5.6162,-5.6161,-5.6152,-5.6161,-5.6162,-5.6162,-5.6162,-5.6163,-5.6163,-5.619,-5.619,-5.6227,-5.6241,-5.6254,-5.6269,-5.6259,-5.6271,-5.6278,-5.6256,-5.6256,-5.6218,-5.6084,-5.6047,-5.6169,-5.6168,-5.6167,-5.6166,-5.6166,-5.6344,-5.6306,-5.6362,-5.6375,-5.6389,-5.6419,-5.639,-5.6417,-5.6424,-5.6444,-5.6403,-5.6309,-5.6288,-5.6276,-5.6245,-5.6411,-5.6411,-5.6411,-5.6411,-5.6433,-5.6422,-5.6473,-5.6496,-5.6516,-5.6495,-5.6558,-5.6552,-5.654,-5.6542,-5.6516,-5.6476,-5.6464,-5.645,-5.6434,-5.6404,-5.6607,-5.6607,-5.6607,-5.6524,-5.6514,-5.6571,-5.656,-5.657,-5.6579,-5.6636,-5.6663,-5.6642,-5.6615,-5.6543,-5.6534,-5.6468,-5.6449,-5.6414,-5.639,-5.6336,0,0]},{"header":{"parameterUnit":"m.s-1","parameterCategory":1,"la1":30.2992,"la2":30.254,"lo1":-89.0895,"lo2":-89.0443,"dy":0.0025,"dx":0.0025,"nx":19,"ny":19,"refTime":"2026-04-22T21:00:00:Z","depth":0,"parameterNumber":3,"parameterNumberName":"V-component_of_WINDS"},"data":[0,0,0,2.2137,2.2136,2.2108,2.2108,2.2049,2.2048,0,0,0,0,0,0,0,0,0,0,0,2.2133,2.2132,2.2137,2.2136,2.2108,2.2108,2.2049,2.2048,0,0,0,0,0,0,0,0,0,0,0,2.2133,2.2132,2.2131,2.2136,2.2108,2.2108,2.2049,2.2078,0,0,0,0,0,0,0,0,0,0,2.2109,2.2093,2.2132,2.2131,2.2136,2.2108,2.2108,2.208,2.2076,2.2052,0,2.2029,0,2.2038,2.2043,2.2043,0,0,0,2.2145,2.2096,2.21,2.2131,2.2135,2.2108,2.2123,2.2078,2.2074,2.2047,2.2028,2.2027,2.2037,2.2043,2.2042,2.188,2.1879,0,0,2.2146,2.212,2.2103,2.2097,2.2102,2.2124,2.2122,2.2076,2.2053,2.2028,2.2026,2.2036,2.2042,2.2041,2.1882,2.188,0,0,0,2.2145,2.212,2.2127,2.2099,2.2096,2.2123,2.2121,2.2055,2.2059,2.2025,2.2035,2.2042,2.2041,2.1883,2.1881,2.18,0,0,0,2.2146,2.212,2.2127,2.211,2.2096,2.2075,2.21,2.2062,2.2058,2.2036,2.2042,2.204,2.1884,2.1882,2.1805,2.1765,0,0,0,2.2139,2.2119,2.2111,2.2109,2.2097,2.2077,2.2079,2.2062,2.2063,2.2043,2.204,2.1885,2.1882,2.1809,2.1772,2.1716,0,0,0,2.2122,2.2036,2.2109,2.2018,2.2097,2.2027,2.2079,2.2028,2.2001,2.2041,2.1884,2.1881,2.1811,2.1777,2.1721,2.1664,2.1638,0,0,2.1999,2.2021,2.1969,2.2034,2.1945,2.2034,2.1933,2.1931,2.1951,2.1902,2.1899,2.1803,2.1773,2.1717,2.1502,2.1481,0,0,0,2.1921,2.1884,2.1866,2.1841,2.184,2.1835,2.1852,2.1852,2.1813,2.1922,2.1769,2.1751,2.1719,2.1694,2.1676,2.1651,2.1868,2.1869,2.1869,2.1708,2.1743,2.166,2.1692,2.1666,2.1687,2.1669,2.1672,2.1711,2.1674,2.166,2.1525,2.1494,2.1481,2.1454,2.1633,2.1632,2.1632,2.1632,2.1531,2.1484,2.1543,2.1484,2.1521,2.1471,2.1488,2.1518,2.1476,2.1538,2.1512,2.1577,2.1457,2.1436,2.1626,2.1627,2.1628,2.1628,2.1629,2.1395,2.1379,2.1383,2.1353,2.1324,2.1359,2.1318,2.1352,2.1383,2.1357,2.1347,2.1348,2.1354,2.135,2.135,2.1349,2.1349,2.1348,2.1348,2.1253,2.126,2.1222,2.1217,2.1207,2.1198,2.122,2.121,2.1208,2.1236,2.1236,2.1279,2.144,2.1479,2.1341,2.1342,2.1343,2.1344,2.1344,2.106,2.1111,2.1052,2.1042,2.1041,2.1012,2.1057,2.1035,2.1032,2.1011,2.1061,2.1174,2.1197,2.1212,2.1245,2.1054,2.1054,2.1054,2.1054,2.0946,2.0962,2.0912,2.0895,2.0882,2.0918,2.0851,2.0868,2.0893,2.0894,2.0927,2.0974,2.0987,2.1002,2.1021,2.1052,2.0817,2.0817,2.0816,2.083,2.0848,2.0784,2.0813,2.0815,2.0815,2.0754,2.0731,2.0769,2.0808,2.0895,2.0905,2.0981,2.1004,2.1042,2.1071,2.1129,0,0]}]]